| time (UTC) | temp F | wind direction | speed knots | gust knots | rain 1hr in | rain 24hr in | rain mn in | humidity % | barometer mb |
| 20260502194803 | 76 | 337 | 0.0 | 1.7 | 0.00 | 0.05 | 0.00 | 99 | 1007.2 |
| 20260502194403 | 76 | 337 | 0.0 | 1.7 | 0.00 | 0.05 | 0.00 | 99 | 1007.2 |
| 20260502194203 | 77 | 337 | 0.0 | 1.7 | 0.00 | 0.05 | 0.00 | 99 | 1007.4 |
| 20260502194003 | 77 | 337 | 0.0 | 1.7 | 0.00 | 0.05 | 0.00 | 99 | 1007.3 |
| 20260502193803 | 76 | 337 | 0.0 | 1.7 | 0.00 | 0.05 | 0.00 | 99 | 1007.4 |
| 20260502193603 | 76 | 337 | 0.9 | 1.7 | 0.00 | 0.05 | 0.00 | 99 | 1007.3 |
| 20260502193203 | 76 | 337 | 0.0 | 1.7 | 0.00 | 0.05 | 0.00 | 99 | 1007.3 |
| 20260502193003 | 76 | 337 | 0.0 | 1.7 | 0.00 | 0.05 | 0.00 | 99 | 1007.4 |
| 20260502192803 | 76 | 337 | 0.0 | 1.7 | 0.00 | 0.05 | 0.00 | 99 | 1007.3 |
| 20260502192403 | 76 | 337 | 0.0 | 1.7 | 0.00 | 0.05 | 0.00 | 99 | 1007.4 |
| 20260502192203 | 76 | 337 | 0.0 | 1.7 | 0.00 | 0.05 | 0.00 | 99 | 1007.3 |
| 20260502192003 | 76 | 337 | 0.0 | 1.7 | 0.00 | 0.05 | 0.00 | 99 | 1007.5 |
| 20260502191803 | 76 | 337 | 0.0 | 1.7 | 0.00 | 0.05 | 0.00 | 99 | 1007.4 |
| 20260502191603 | 76 | 337 | 0.9 | 1.7 | 0.00 | 0.05 | 0.00 | 99 | 1007.5 |
| 20260502191403 | 76 | 337 | 0.9 | 1.7 | 0.00 | 0.05 | 0.00 | 99 | 1007.5 |
| 20260502191203 | 76 | 337 | 0.0 | 1.7 | 0.00 | 0.05 | 0.00 | 99 | 1007.4 |
| 20260502191003 | 76 | 337 | 0.0 | 1.7 | 0.00 | 0.05 | 0.00 | 99 | 1007.3 |
| 20260502190803 | 77 | 337 | 0.0 | 1.7 | 0.00 | 0.05 | 0.00 | 99 | 1007.4 |
| 20260502190603 | 77 | 337 | 0.0 | 1.7 | 0.00 | 0.05 | 0.00 | 99 | 1007.2 |
| 20260502190403 | 77 | 337 | 0.0 | 1.7 | 0.00 | 0.05 | 0.00 | 99 | 1007.3 |
| 20260502190203 | 76 | 337 | 0.9 | 1.7 | 0.00 | 0.05 | 0.00 | 99 | 1007.4 |
| 20260502190004 | 76 | 337 | 0.9 | 1.7 | 0.00 | 0.05 | 0.00 | 99 | 1007.5 |
| 20260502185803 | 76 | 337 | 0.0 | 1.7 | 0.00 | 0.05 | 0.00 | 99 | 1007.4 |
| 20260502185603 | 76 | 337 | 0.0 | 1.7 | 0.00 | 0.05 | 0.00 | 99 | 1007.2 |
| 20260502185403 | 76 | 337 | 0.0 | 1.7 | 0.00 | 0.05 | 0.00 | 99 | 1007.4 |
| 20260502185203 | 76 | 337 | 0.0 | 1.7 | 0.00 | 0.05 | 0.00 | 99 | 1007.5 |
| 20260502185003 | 76 | 337 | 0.0 | 1.7 | 0.00 | 0.05 | 0.00 | 99 | 1007.3 |
| 20260502184803 | 76 | 337 | 0.0 | 1.7 | 0.00 | 0.05 | 0.00 | 98 | 1007.5 |
| 20260502184603 | 76 | 337 | 0.0 | 1.7 | 0.00 | 0.05 | 0.00 | 98 | 1007.6 |
| 20260502184403 | 76 | 337 | 0.9 | 1.7 | 0.00 | 0.05 | 0.00 | 98 | 1007.5 |
| 20260502184203 | 76 | 337 | 1.7 | 1.7 | 0.00 | 0.05 | 0.00 | 98 | 1007.5 |
| 20260502184003 | 76 | 337 | 0.9 | 1.7 | 0.00 | 0.05 | 0.00 | 98 | 1007.7 |
| 20260502183803 | 76 | 337 | 0.0 | 1.7 | 0.00 | 0.05 | 0.00 | 98 | 1007.7 |
| 20260502183603 | 76 | 337 | 0.9 | 1.7 | 0.00 | 0.05 | 0.00 | 98 | 1007.6 |
| 20260502183403 | 76 | 0 | 0.0 | 0.0 | 0.00 | 0.05 | 0.00 | 98 | 1007.6 |
| 20260502183203 | 76 | 0 | 0.0 | 0.0 | 0.00 | 0.05 | 0.00 | 98 | 1007.7 |
| 20260502183003 | 76 | 0 | 0.0 | 0.0 | 0.00 | 0.05 | 0.00 | 98 | 1007.7 |
| 20260502182803 | 76 | 0 | 0.0 | 0.0 | 0.00 | 0.05 | 0.00 | 98 | 1007.8 |
| 20260502182603 | 76 | 0 | 0.0 | 0.0 | 0.00 | 0.05 | 0.00 | 98 | 1008.0 |
| 20260502182403 | 76 | 0 | 0.0 | 0.0 | 0.00 | 0.05 | 0.00 | 98 | 1007.8 |
| 20260502182203 | 76 | 0 | 0.0 | 0.0 | 0.00 | 0.05 | 0.00 | 98 | 1007.8 |
| 20260502182003 | 76 | 0 | 0.0 | 0.0 | 0.00 | 0.05 | 0.00 | 98 | 1007.8 |
| 20260502181803 | 76 | 0 | 0.0 | 0.0 | 0.00 | 0.05 | 0.00 | 98 | 1007.9 |
| 20260502181603 | 76 | 0 | 0.0 | 0.0 | 0.00 | 0.05 | 0.00 | 98 | 1007.8 |
| 20260502181403 | 76 | 0 | 0.0 | 0.0 | 0.00 | 0.05 | 0.00 | 98 | 1008.0 |
| 20260502181203 | 76 | 0 | 0.0 | 0.0 | 0.00 | 0.05 | 0.00 | 98 | 1007.9 |
| 20260502181003 | 77 | 0 | 0.0 | 0.0 | 0.00 | 0.05 | 0.00 | 98 | 1007.9 |
| 20260502180803 | 77 | 0 | 0.0 | 0.0 | 0.00 | 0.05 | 0.00 | 98 | 1008.0 |
| 20260502180603 | 76 | 337 | 0.0 | 1.7 | 0.00 | 0.05 | 0.00 | 99 | 1008.2 |
| 20260502180403 | 76 | 337 | 0.0 | 1.7 | 0.00 | 0.05 | 0.00 | 98 | 1008.1 |
| 20260502180203 | 76 | 337 | 0.0 | 1.7 | 0.00 | 0.05 | 0.00 | 98 | 1008.2 |
| 20260502170400 | 77 | 270 | 0.9 | 1.7 | 0.00 | 0.05 | 0.00 | 98 | 1008.7 |
| 20260502170200 | 77 | 270 | 0.9 | 1.7 | 0.00 | 0.05 | 0.00 | 98 | 1008.8 |
| 20260502164201 | 77 | 270 | 0.0 | 1.7 | 0.00 | 0.05 | 0.00 | 98 | 1008.9 |
| 20260502164000 | 77 | 270 | 0.0 | 1.7 | 0.00 | 0.05 | 0.00 | 98 | 1008.8 |
| 20260502163800 | 77 | 270 | 0.0 | 1.7 | 0.00 | 0.05 | 0.00 | 98 | 1009.0 |
| 20260502163600 | 77 | 270 | 0.0 | 1.7 | 0.00 | 0.05 | 0.00 | 98 | 1009.1 |
| 20260502163400 | 78 | 270 | 0.0 | 1.7 | 0.00 | 0.05 | 0.00 | 98 | 1009.0 |
| 20260502163200 | 78 | 270 | 0.0 | 1.7 | 0.00 | 0.05 | 0.00 | 98 | 1009.1 |
| 20260502163000 | 78 | 270 | 1.7 | 1.7 | 0.00 | 0.05 | 0.00 | 98 | 1009.3 |
| 20260502162800 | 77 | 270 | 1.7 | 1.7 | 0.00 | 0.05 | 0.00 | 98 | 1009.2 |
| 20260502162601 | 77 | 0 | 0.0 | 0.0 | 0.00 | 0.05 | 0.00 | 98 | 1009.2 |
| 20260502162401 | 77 | 0 | 0.0 | 0.0 | 0.00 | 0.05 | 0.00 | 98 | 1009.2 |
| 20260502162200 | 77 | 0 | 0.0 | 0.0 | 0.00 | 0.05 | 0.00 | 98 | 1009.2 |
| 20260502162000 | 77 | 0 | 0.0 | 0.0 | 0.00 | 0.05 | 0.00 | 98 | 1009.3 |
| 20260502161800 | 77 | 270 | 0.0 | 1.7 | 0.00 | 0.05 | 0.00 | 98 | 1009.0 |
| 20260502161600 | 77 | 270 | 0.0 | 1.7 | 0.00 | 0.05 | 0.00 | 98 | 1009.1 |
| 20260502161400 | 77 | 270 | 0.0 | 1.7 | 0.00 | 0.05 | 0.00 | 98 | 1009.1 |
| 20260502161200 | 77 | 270 | 0.0 | 1.7 | 0.00 | 0.05 | 0.00 | 98 | 1009.1 |
| 20260502161001 | 77 | 270 | 0.0 | 1.7 | 0.00 | 0.05 | 0.00 | 98 | 1009.1 |
| 20260502160800 | 77 | 270 | 0.0 | 1.7 | 0.00 | 0.05 | 0.00 | 98 | 1009.1 |
| 20260502160600 | 77 | 270 | 0.9 | 1.7 | 0.00 | 0.05 | 0.00 | 97 | 1009.3 |
| 20260502160400 | 77 | 270 | 1.7 | 1.7 | 0.00 | 0.05 | 0.00 | 97 | 1009.3 |
| 20260502160200 | 77 | 270 | 1.7 | 1.7 | 0.00 | 0.05 | 0.00 | 97 | 1009.2 |
| 20260502152201 | 78 | 270 | 0.9 | 1.7 | 0.00 | 0.05 | 0.05 | 97 | 1009.4 |
| 20260502152001 | 78 | 270 | 1.7 | 1.7 | 0.00 | 0.05 | 0.05 | 97 | 1009.1 |
| 20260502151801 | 78 | 0 | 0.0 | 0.0 | 0.00 | 0.05 | 0.05 | 97 | 1009.3 |
| 20260502151601 | 78 | 0 | 0.0 | 0.0 | 0.00 | 0.05 | 0.05 | 97 | 1009.1 |
| 20260502151401 | 78 | 0 | 0.0 | 0.0 | 0.00 | 0.05 | 0.05 | 97 | 1009.2 |
| 20260502151201 | 78 | 0 | 0.0 | 0.0 | 0.00 | 0.05 | 0.05 | 97 | 1009.1 |
| 20260502151001 | 78 | 0 | 0.0 | 0.0 | 0.00 | 0.05 | 0.05 | 97 | 1009.1 |
| 20260502150801 | 78 | 0 | 0.0 | 0.0 | 0.00 | 0.05 | 0.05 | 97 | 1009.1 |
| 20260502150601 | 78 | 270 | 0.0 | 1.7 | 0.00 | 0.05 | 0.05 | 97 | 1009.0 |
| 20260502150401 | 78 | 270 | 0.0 | 1.7 | 0.00 | 0.05 | 0.05 | 97 | 1009.1 |
| 20260502150201 | 78 | 270 | 0.0 | 1.7 | 0.00 | 0.05 | 0.05 | 97 | 1009.1 |
| 20260502130601 | 80 | 270 | 0.0 | 1.7 | 0.00 | 0.05 | 0.05 | 95 | 1007.8 |
| 20260502130401 | 80 | 270 | 0.0 | 1.7 | 0.00 | 0.05 | 0.05 | 95 | 1007.8 |
| 20260502130201 | 80 | 270 | 0.0 | 1.7 | 0.00 | 0.05 | 0.05 | 95 | 1008.0 |
| 20260502123801 | 80 | 270 | 0.9 | 1.7 | 0.00 | 0.05 | 0.05 | 94 | 1007.3 |
| 20260502123601 | 80 | 270 | 0.0 | 1.7 | 0.00 | 0.05 | 0.05 | 94 | 1007.3 |
| 20260502123401 | 80 | 270 | 0.9 | 1.7 | 0.00 | 0.05 | 0.05 | 94 | 1007.4 |
| 20260502123201 | 80 | 282 | 0.9 | 1.7 | 0.00 | 0.05 | 0.05 | 94 | 1007.2 |
| 20260502123001 | 80 | 303 | 0.9 | 1.7 | 0.00 | 0.05 | 0.05 | 93 | 1007.2 |
| 20260502122801 | 80 | 307 | 0.0 | 1.7 | 0.00 | 0.05 | 0.05 | 93 | 1007.1 |
| 20260502122601 | 80 | 305 | 0.0 | 1.7 | 0.00 | 0.05 | 0.05 | 93 | 1007.1 |
| 20260502122401 | 81 | 308 | 0.0 | 1.7 | 0.00 | 0.05 | 0.05 | 93 | 1007.2 |
| 20260502122201 | 81 | 311 | 1.7 | 1.7 | 0.00 | 0.05 | 0.05 | 93 | 1006.8 |
| 20260502122001 | 81 | 307 | 1.7 | 1.7 | 0.00 | 0.05 | 0.05 | 93 | 1007.2 |
| 20260502121801 | 81 | 309 | 1.7 | 1.7 | 0.00 | 0.05 | 0.05 | 93 | 1007.0 |
| 20260502121601 | 81 | 314 | 0.9 | 1.7 | 0.00 | 0.05 | 0.05 | 93 | 1007.0 |
| 20260502121401 | 81 | 315 | 0.9 | 1.7 | 0.00 | 0.05 | 0.05 | 93 | 1006.8 |
| 20260502121201 | 81 | 315 | 0.0 | 1.7 | 0.00 | 0.05 | 0.05 | 93 | 1007.2 |
| 20260502121001 | 81 | 315 | 0.0 | 1.7 | 0.00 | 0.05 | 0.05 | 93 | 1006.9 |
| 20260502120801 | 81 | 315 | 1.7 | 1.7 | 0.00 | 0.05 | 0.05 | 92 | 1007.0 |
| 20260502120602 | 81 | 315 | 1.7 | 1.7 | 0.00 | 0.05 | 0.05 | 92 | 1006.8 |
| 20260502120401 | 81 | 315 | 1.7 | 1.7 | 0.00 | 0.05 | 0.05 | 92 | 1006.9 |
| 20260502120201 | 81 | 315 | 0.9 | 1.7 | 0.00 | 0.05 | 0.05 | 92 | 1006.6 |
| 20260502115801 | 81 | 320 | 0.9 | 1.7 | 0.00 | 0.05 | 0.05 | 92 | 1006.6 |
| 20260502115601 | 81 | 321 | 0.9 | 1.7 | 0.00 | 0.05 | 0.05 | 91 | 1006.3 |
| 20260502115401 | 82 | 323 | 1.7 | 1.7 | 0.00 | 0.05 | 0.05 | 91 | 1006.4 |
| 20260502115201 | 82 | 329 | 1.7 | 1.7 | 0.00 | 0.05 | 0.05 | 90 | 1006.5 |
| 20260502115001 | 82 | 337 | 1.7 | 1.7 | 0.00 | 0.05 | 0.05 | 90 | 1006.4 |
| 20260502114801 | 82 | 337 | 0.0 | 1.7 | 0.00 | 0.05 | 0.05 | 90 | 1006.3 |
| 20260502114601 | 82 | 337 | 0.0 | 1.7 | 0.00 | 0.05 | 0.05 | 90 | 1006.5 |
| 20260502114401 | 82 | 337 | 0.0 | 1.7 | 0.00 | 0.05 | 0.05 | 90 | 1006.4 |
| 20260502114201 | 82 | 337 | 0.0 | 1.7 | 0.00 | 0.05 | 0.05 | 89 | 1006.3 |
| 20260502114001 | 82 | 337 | 0.0 | 1.7 | 0.00 | 0.05 | 0.05 | 89 | 1006.5 |
| 20260502113801 | 83 | 337 | 0.0 | 1.7 | 0.00 | 0.05 | 0.05 | 89 | 1006.1 |
| 20260502113601 | 83 | 0 | 0.0 | 0.0 | 0.00 | 0.05 | 0.05 | 88 | 1006.2 |
| 20260502113401 | 83 | 337 | 0.0 | 1.7 | 0.00 | 0.05 | 0.05 | 88 | 1006.2 |
| 20260502113201 | 83 | 337 | 0.0 | 1.7 | 0.00 | 0.05 | 0.05 | 88 | 1006.2 |
| 20260502113001 | 83 | 337 | 0.0 | 1.7 | 0.00 | 0.05 | 0.05 | 88 | 1006.1 |
| 20260502112801 | 83 | 337 | 0.0 | 1.7 | 0.00 | 0.05 | 0.05 | 88 | 1006.1 |
| 20260502112601 | 83 | 337 | 0.0 | 1.7 | 0.00 | 0.05 | 0.05 | 88 | 1006.2 |
| 20260502112401 | 83 | 337 | 0.9 | 1.7 | 0.00 | 0.05 | 0.05 | 88 | 1006.1 |
| 20260502112202 | 83 | 337 | 1.7 | 1.7 | 0.00 | 0.05 | 0.05 | 88 | 1006.2 |
| 20260502112001 | 83 | 337 | 0.9 | 1.7 | 0.00 | 0.05 | 0.05 | 87 | 1006.1 |
| 20260502111801 | 83 | 337 | 0.9 | 1.7 | 0.00 | 0.05 | 0.05 | 87 | 1006.1 |
| 20260502111601 | 83 | 337 | 0.0 | 1.7 | 0.00 | 0.05 | 0.05 | 87 | 1006.0 |
| 20260502111401 | 84 | 0 | 0.0 | 0.0 | 0.00 | 0.05 | 0.05 | 86 | 1006.1 |
| 20260502111201 | 84 | 0 | 0.0 | 0.0 | 0.00 | 0.05 | 0.05 | 86 | 1006.1 |
| 20260502111001 | 84 | 337 | 0.0 | 1.7 | 0.00 | 0.05 | 0.05 | 86 | 1006.2 |
| 20260502110801 | 84 | 337 | 0.0 | 1.7 | 0.00 | 0.05 | 0.05 | 86 | 1005.9 |
| 20260502110602 | 84 | 337 | 0.0 | 1.7 | 0.00 | 0.05 | 0.05 | 86 | 1006.0 |
| 20260502110401 | 84 | 340 | 0.0 | 1.7 | 0.00 | 0.05 | 0.05 | 86 | 1005.9 |
| 20260502110201 | 84 | 341 | 0.0 | 1.7 | 0.00 | 0.05 | 0.05 | 86 | 1005.9 |
| 20260502110001 | 84 | 342 | 0.9 | 1.7 | 0.00 | 0.05 | 0.05 | 85 | 1005.8 |
| 20260502105801 | 84 | 345 | 1.7 | 1.7 | 0.00 | 0.05 | 0.05 | 85 | 1005.7 |
| 20260502105601 | 85 | 352 | 0.9 | 1.7 | 0.00 | 0.05 | 0.05 | 84 | 1005.7 |
| 20260502105401 | 85 | 360 | 0.9 | 1.7 | 0.00 | 0.05 | 0.05 | 84 | 1005.8 |
| 20260502105201 | 85 | 360 | 0.0 | 1.7 | 0.00 | 0.05 | 0.05 | 83 | 1005.8 |
| 20260502105001 | 85 | 360 | 0.0 | 1.7 | 0.00 | 0.05 | 0.05 | 83 | 1005.8 |
| 20260502104801 | 85 | 360 | 0.0 | 1.7 | 0.00 | 0.05 | 0.05 | 83 | 1005.7 |
| 20260502104601 | 85 | 360 | 0.9 | 1.7 | 0.00 | 0.05 | 0.05 | 83 | 1005.7 |
| 20260502104401 | 85 | 360 | 0.0 | 1.7 | 0.00 | 0.05 | 0.05 | 83 | 1005.5 |
| 20260502104201 | 85 | 360 | 0.0 | 1.7 | 0.00 | 0.05 | 0.05 | 83 | 1005.7 |
| 20260502104001 | 85 | 4 | 0.0 | 1.7 | 0.00 | 0.05 | 0.05 | 82 | 1005.6 |
| 20260502103801 | 85 | 13 | 0.0 | 1.7 | 0.00 | 0.05 | 0.05 | 82 | 1005.8 |
| 20260502103601 | 85 | 24 | 0.0 | 1.7 | 0.00 | 0.05 | 0.05 | 82 | 1005.6 |
| 20260502103401 | 85 | 34 | 0.9 | 1.7 | 0.00 | 0.05 | 0.05 | 82 | 1005.7 |
| 20260502103201 | 85 | 52 | 1.7 | 3.5 | 0.00 | 0.05 | 0.05 | 82 | 1005.5 |
| 20260502103001 | 85 | 58 | 0.9 | 3.5 | 0.00 | 0.05 | 0.05 | 82 | 1005.7 |
| 20260502102801 | 86 | 58 | 0.9 | 3.5 | 0.00 | 0.05 | 0.05 | 81 | 1005.5 |
| 20260502102601 | 86 | 59 | 0.9 | 3.5 | 0.00 | 0.05 | 0.05 | 81 | 1005.6 |
| 20260502102401 | 86 | 53 | 0.0 | 3.5 | 0.00 | 0.05 | 0.05 | 81 | 1005.7 |
| 20260502102201 | 86 | 51 | 1.7 | 3.5 | 0.00 | 0.05 | 0.05 | 81 | 1005.6 |
| 20260502102002 | 86 | 50 | 1.7 | 3.5 | 0.00 | 0.05 | 0.05 | 80 | 1005.5 |
| 20260502101802 | 86 | 52 | 1.7 | 3.5 | 0.00 | 0.05 | 0.05 | 80 | 1005.6 |
| 20260502101601 | 86 | 50 | 0.0 | 3.5 | 0.00 | 0.05 | 0.05 | 80 | 1005.5 |
| 20260502101401 | 86 | 53 | 1.7 | 5.2 | 0.00 | 0.05 | 0.05 | 80 | 1005.5 |
| 20260502101201 | 86 | 62 | 1.7 | 5.2 | 0.00 | 0.05 | 0.05 | 80 | 1005.3 |
| 20260502101001 | 87 | 61 | 1.7 | 5.2 | 0.00 | 0.05 | 0.05 | 79 | 1005.4 |
| 20260502100801 | 87 | 64 | 0.9 | 5.2 | 0.00 | 0.05 | 0.05 | 79 | 1005.5 |
| 20260502100601 | 87 | 64 | 0.9 | 5.2 | 0.00 | 0.05 | 0.05 | 79 | 1005.6 |
| 20260502100402 | 87 | 68 | 2.6 | 5.2 | 0.00 | 0.05 | 0.05 | 79 | 1005.5 |
| 20260502100201 | 87 | 60 | 1.7 | 5.2 | 0.00 | 0.05 | 0.05 | 78 | 1005.5 |
| 20260502091401 | 89 | 52 | 2.6 | 6.1 | 0.00 | 0.05 | 0.05 | 73 | 1005.4 |
| 20260502091201 | 89 | 45 | 2.6 | 6.1 | 0.00 | 0.05 | 0.05 | 72 | 1005.5 |
| 20260502091002 | 89 | 45 | 3.5 | 6.1 | 0.00 | 0.05 | 0.05 | 71 | 1005.5 |
| 20260502090801 | 89 | 46 | 2.6 | 6.1 | 0.00 | 0.05 | 0.05 | 71 | 1005.4 |
| 20260502090601 | 89 | 51 | 2.6 | 6.1 | 0.00 | 0.05 | 0.05 | 71 | 1005.4 |
| 20260502090401 | 89 | 50 | 1.7 | 6.1 | 0.00 | 0.05 | 0.05 | 70 | 1005.6 |
| 20260502090201 | 89 | 50 | 2.6 | 6.1 | 0.00 | 0.05 | 0.05 | 71 | 1005.5 |
| 20260502071402 | 91 | 85 | 3.5 | 6.1 | 0.00 | 0.05 | 0.05 | 65 | 1006.2 |
| 20260502071202 | 91 | 82 | 1.7 | 6.1 | 0.00 | 0.05 | 0.05 | 65 | 1006.2 |
| 20260502071002 | 91 | 90 | 2.6 | 6.1 | 0.00 | 0.05 | 0.05 | 64 | 1006.2 |
| 20260502070802 | 91 | 95 | 3.5 | 6.1 | 0.00 | 0.05 | 0.05 | 64 | 1006.2 |
| 20260502070602 | 91 | 109 | 3.5 | 7.0 | 0.00 | 0.05 | 0.05 | 63 | 1006.3 |
| 20260502070402 | 91 | 112 | 1.7 | 7.0 | 0.00 | 0.05 | 0.05 | 65 | 1006.5 |
| 20260502070202 | 91 | 115 | 3.5 | 7.0 | 0.00 | 0.05 | 0.05 | 63 | 1006.4 |
| 20260502070002 | 91 | 115 | 3.5 | 7.0 | 0.00 | 0.05 | 0.05 | 63 | 1006.4 |
| 20260502065802 | 91 | 107 | 2.6 | 7.0 | 0.00 | 0.05 | 0.05 | 63 | 1006.6 |
| 20260502065602 | 91 | 97 | 4.3 | 7.0 | 0.00 | 0.05 | 0.05 | 62 | 1006.7 |
| 20260502065402 | 91 | 97 | 3.5 | 6.1 | 0.00 | 0.05 | 0.05 | 65 | 1006.6 |
| 20260502065202 | 91 | 100 | 1.7 | 5.2 | 0.00 | 0.05 | 0.05 | 65 | 1006.8 |
| 20260502065002 | 91 | 108 | 3.5 | 5.2 | 0.00 | 0.05 | 0.05 | 65 | 1006.8 |
| 20260502064802 | 90 | 107 | 2.6 | 5.2 | 0.00 | 0.05 | 0.05 | 67 | 1006.8 |
| 20260502064602 | 90 | 92 | 1.7 | 5.2 | 0.00 | 0.05 | 0.05 | 68 | 1006.8 |
| 20260502064402 | 90 | 61 | 3.5 | 5.2 | 0.00 | 0.05 | 0.05 | 67 | 1006.8 |
| 20260502064202 | 90 | 40 | 2.6 | 5.2 | 0.00 | 0.05 | 0.05 | 67 | 1006.8 |
| 20260502064002 | 90 | 1 | 2.6 | 5.2 | 0.00 | 0.05 | 0.05 | 66 | 1006.9 |
| 20260502063802 | 90 | 350 | 1.7 | 5.2 | 0.00 | 0.05 | 0.05 | 67 | 1007.1 |
| 20260502063602 | 90 | 357 | 1.7 | 5.2 | 0.00 | 0.05 | 0.05 | 68 | 1007.0 |
| 20260502063402 | 90 | 12 | 1.7 | 5.2 | 0.00 | 0.05 | 0.05 | 69 | 1007.3 |
| 20260502063202 | 90 | 27 | 1.7 | 5.2 | 0.00 | 0.05 | 0.05 | 71 | 1007.1 |
| 20260502063002 | 89 | 45 | 1.7 | 3.5 | 0.00 | 0.05 | 0.05 | 70 | 1007.2 |
| 20260502062802 | 89 | 53 | 2.6 | 3.5 | 0.00 | 0.05 | 0.05 | 69 | 1007.0 |
| 20260502062602 | 88 | 63 | 0.9 | 3.5 | 0.00 | 0.05 | 0.05 | 69 | 1007.1 |
| 20260502062402 | 88 | 53 | 1.7 | 3.5 | 0.00 | 0.05 | 0.05 | 69 | 1007.0 |
| 20260502062202 | 88 | 49 | 1.7 | 5.2 | 0.00 | 0.05 | 0.05 | 70 | 1007.2 |
| 20260502062002 | 88 | 46 | 1.7 | 5.2 | 0.00 | 0.05 | 0.05 | 71 | 1007.1 |
| 20260502061802 | 88 | 45 | 3.5 | 5.2 | 0.00 | 0.05 | 0.05 | 74 | 1007.2 |
| 20260502061602 | 87 | 45 | 1.7 | 5.2 | 0.00 | 0.05 | 0.05 | 75 | 1007.3 |
| 20260502061402 | 87 | 55 | 1.7 | 5.2 | 0.00 | 0.05 | 0.05 | 75 | 1007.4 |
| 20260502061202 | 87 | 62 | 3.5 | 5.2 | 0.00 | 0.05 | 0.05 | 75 | 1007.5 |
| 20260502061002 | 87 | 64 | 1.7 | 5.2 | 0.00 | 0.05 | 0.05 | 77 | 1007.5 |
| 20260502060802 | 87 | 70 | 3.5 | 5.2 | 0.00 | 0.05 | 0.05 | 78 | 1007.7 |
| 20260502060602 | 87 | 73 | 3.5 | 5.2 | 0.00 | 0.05 | 0.05 | 79 | 1007.7 |
| 20260502060402 | 86 | 71 | 1.7 | 5.2 | 0.00 | 0.05 | 0.05 | 81 | 1007.9 |
| 20260502060202 | 86 | 74 | 1.7 | 5.2 | 0.00 | 0.05 | 0.05 | 80 | 1008.0 |
| 20260502060002 | 86 | 76 | 1.7 | 5.2 | 0.00 | 0.05 | 0.05 | 80 | 1008.1 |
| 20260502055802 | 86 | 81 | 1.7 | 3.5 | 0.00 | 0.05 | 0.05 | 80 | 1007.9 |
| 20260502055602 | 86 | 75 | 0.9 | 3.5 | 0.00 | 0.05 | 0.05 | 80 | 1008.1 |
| 20260502055402 | 86 | 77 | 1.7 | 3.5 | 0.00 | 0.05 | 0.05 | 80 | 1008.1 |
| 20260502055202 | 85 | 71 | 1.7 | 3.5 | 0.00 | 0.05 | 0.05 | 80 | 1008.1 |
| 20260502055002 | 85 | 69 | 0.9 | 3.5 | 0.00 | 0.05 | 0.05 | 80 | 1008.2 |
| 20260502054802 | 85 | 59 | 2.6 | 3.5 | 0.00 | 0.05 | 0.05 | 79 | 1008.0 |
| 20260502054602 | 85 | 62 | 1.7 | 3.5 | 0.00 | 0.05 | 0.05 | 80 | 1008.2 |
| 20260502054402 | 85 | 59 | 1.7 | 3.5 | 0.00 | 0.05 | 0.05 | 79 | 1008.2 |
| 20260502054202 | 85 | 66 | 1.7 | 3.5 | 0.00 | 0.05 | 0.05 | 80 | 1008.1 |
| 20260502054002 | 85 | 76 | 1.7 | 3.5 | 0.00 | 0.05 | 0.05 | 82 | 1008.3 |
| 20260502053802 | 84 | 84 | 0.9 | 3.5 | 0.00 | 0.05 | 0.05 | 81 | 1008.2 |
| 20260502053602 | 84 | 94 | 2.6 | 3.5 | 0.00 | 0.05 | 0.05 | 81 | 1008.3 |
| 20260502053402 | 84 | 99 | 1.7 | 3.5 | 0.00 | 0.05 | 0.05 | 83 | 1008.4 |
| 20260502053202 | 84 | 104 | 2.6 | 3.5 | 0.00 | 0.05 | 0.05 | 83 | 1008.1 |
| 20260502053003 | 84 | 109 | 2.6 | 3.5 | 0.00 | 0.05 | 0.05 | 84 | 1008.3 |
| 20260502052802 | 84 | 120 | 1.7 | 3.5 | 0.00 | 0.05 | 0.05 | 85 | 1008.6 |
| 20260502052602 | 83 | 114 | 1.7 | 3.5 | 0.01 | 0.05 | 0.05 | 85 | 1008.3 |
| 20260502052402 | 83 | 111 | 0.9 | 3.5 | 0.01 | 0.05 | 0.05 | 86 | 1008.2 |
| 20260502052202 | 83 | 111 | 1.7 | 3.5 | 0.02 | 0.05 | 0.05 | 87 | 1008.5 |
| 20260502052002 | 83 | 100 | 3.5 | 3.5 | 0.02 | 0.05 | 0.05 | 87 | 1008.4 |
| 20260502051802 | 83 | 86 | 1.7 | 3.5 | 0.04 | 0.05 | 0.05 | 88 | 1008.6 |
| 20260502051602 | 83 | 83 | 1.7 | 3.5 | 0.04 | 0.05 | 0.05 | 88 | 1008.6 |
| 20260502051402 | 82 | 78 | 1.7 | 3.5 | 0.05 | 0.05 | 0.05 | 89 | 1008.5 |
| 20260502051202 | 82 | 71 | 1.7 | 5.2 | 0.05 | 0.05 | 0.05 | 88 | 1008.6 |
| 20260502051002 | 82 | 68 | 2.6 | 5.2 | 0.05 | 0.05 | 0.05 | 88 | 1008.8 |
| 20260502050802 | 82 | 73 | 1.7 | 5.2 | 0.05 | 0.05 | 0.05 | 89 | 1008.7 |
| 20260502050602 | 82 | 74 | 3.5 | 5.2 | 0.05 | 0.05 | 0.05 | 89 | 1008.8 |
| 20260502050402 | 82 | 74 | 2.6 | 5.2 | 0.05 | 0.05 | 0.05 | 90 | 1009.0 |
| 20260502050202 | 82 | 73 | 1.7 | 3.5 | 0.05 | 0.05 | 0.05 | 91 | 1008.9 |
| 20260502050002 | 81 | 73 | 1.7 | 3.5 | 0.05 | 0.05 | 0.05 | 92 | 1009.0 |
| 20260502045802 | 81 | 63 | 1.7 | 3.5 | 0.05 | 0.05 | 0.05 | 92 | 1009.0 |
| 20260502045602 | 81 | 59 | 1.7 | 3.5 | 0.05 | 0.05 | 0.05 | 92 | 1009.3 |
| 20260502045402 | 81 | 68 | 2.6 | 3.5 | 0.05 | 0.05 | 0.05 | 93 | 1009.2 |
| 20260502045202 | 80 | 71 | 1.7 | 3.5 | 0.05 | 0.05 | 0.05 | 93 | 1009.4 |
| 20260502045002 | 80 | 68 | 1.7 | 3.5 | 0.05 | 0.05 | 0.05 | 94 | 1009.1 |
| 20260502044802 | 80 | 68 | 1.7 | 3.5 | 0.05 | 0.05 | 0.05 | 94 | 1009.2 |
| 20260502044602 | 80 | 67 | 2.6 | 3.5 | 0.05 | 0.05 | 0.05 | 94 | 1009.2 |
| 20260502044402 | 80 | 56 | 1.7 | 3.5 | 0.05 | 0.05 | 0.05 | 94 | 1009.0 |
| 20260502044202 | 80 | 57 | 2.6 | 3.5 | 0.05 | 0.05 | 0.05 | 94 | 1009.2 |
| 20260502044002 | 80 | 60 | 2.6 | 5.2 | 0.05 | 0.05 | 0.05 | 94 | 1009.4 |
| 20260502043802 | 79 | 62 | 0.9 | 5.2 | 0.05 | 0.05 | 0.05 | 95 | 1009.2 |
| 20260502043602 | 79 | 61 | 1.7 | 7.0 | 0.05 | 0.05 | 0.05 | 94 | 1009.3 |
| 20260502043402 | 79 | 68 | 2.6 | 9.6 | 0.05 | 0.05 | 0.05 | 94 | 1009.4 |
| 20260502043202 | 79 | 68 | 2.6 | 11.3 | 0.05 | 0.05 | 0.05 | 94 | 1009.4 |
| 20260502043002 | 79 | 67 | 1.7 | 11.3 | 0.05 | 0.05 | 0.05 | 94 | 1009.5 |
| 20260502042802 | 79 | 69 | 3.5 | 11.3 | 0.05 | 0.05 | 0.05 | 93 | 1009.5 |
| 20260502042602 | 79 | 71 | 4.3 | 11.3 | 0.04 | 0.04 | 0.04 | 93 | 1009.4 |
| 20260502042402 | 80 | 74 | 6.1 | 11.3 | 0.04 | 0.04 | 0.04 | 92 | 1009.6 |
| 20260502042202 | 80 | 74 | 3.5 | 11.3 | 0.02 | 0.02 | 0.02 | 92 | 1009.9 |
| 20260502042002 | 80 | 72 | 4.3 | 13.0 | 0.02 | 0.02 | 0.02 | 92 | 1009.8 |
| 20260502041802 | 80 | 73 | 4.3 | 13.0 | 0.01 | 0.01 | 0.01 | 92 | 1009.5 |
| 20260502041602 | 81 | 72 | 1.7 | 13.0 | 0.01 | 0.01 | 0.01 | 92 | 1009.7 |
| 20260502041402 | 81 | 70 | 8.7 | 13.0 | 0.00 | 0.00 | 0.00 | 90 | 1009.7 |
| 20260502041202 | 82 | 70 | 7.0 | 13.0 | 0.00 | 0.00 | 0.00 | 90 | 1009.7 |
| 20260502041002 | 82 | 70 | 7.8 | 13.0 | 0.00 | 0.00 | 0.00 | 88 | 1009.7 |
| 20260502040802 | 83 | 74 | 7.0 | 13.0 | 0.00 | 0.00 | 0.00 | 87 | 1009.9 |
| 20260502040602 | 85 | 74 | 7.0 | 13.0 | 0.00 | 0.00 | 0.00 | 85 | 1009.9 |
| 20260502040402 | 86 | 78 | 7.0 | 13.0 | 0.00 | 0.00 | 0.00 | 83 | 1009.6 |
| 20260502040202 | 87 | 79 | 7.0 | 9.6 | 0.00 | 0.00 | 0.00 | 80 | 1009.8 |
| 20260502040002 | 88 | 84 | 4.3 | 7.0 | 0.00 | 0.00 | 0.00 | 79 | 1009.8 |
| 20260502035802 | 88 | 80 | 2.6 | 5.2 | 0.00 | 0.00 | 0.00 | 77 | 1010.0 |
| 20260502035602 | 88 | 70 | 3.5 | 5.2 | 0.00 | 0.00 | 0.00 | 76 | 1009.9 |
| 20260502035402 | 89 | 60 | 2.6 | 3.5 | 0.00 | 0.00 | 0.00 | 74 | 1010.0 |
| 20260502035202 | 89 | 27 | 1.7 | 3.5 | 0.00 | 0.00 | 0.00 | 74 | 1009.9 |
| 20260502035002 | 89 | 352 | 1.7 | 3.5 | 0.00 | 0.00 | 0.00 | 74 | 1009.9 |
| 20260502034802 | 89 | 331 | 1.7 | 3.5 | 0.00 | 0.00 | 0.00 | 74 | 1009.7 |
| 20260502034602 | 89 | 319 | 0.9 | 3.5 | 0.00 | 0.00 | 0.00 | 74 | 1009.6 |
| 20260502034402 | 89 | 307 | 1.7 | 3.5 | 0.00 | 0.00 | 0.00 | 74 | 1009.6 |
| 20260502034202 | 89 | 308 | 1.7 | 3.5 | 0.00 | 0.00 | 0.00 | 73 | 1009.5 |
| 20260502034002 | 89 | 305 | 2.6 | 3.5 | 0.00 | 0.00 | 0.00 | 73 | 1009.6 |
| 20260502033802 | 90 | 301 | 2.6 | 3.5 | 0.00 | 0.00 | 0.00 | 71 | 1009.7 |
| 20260502033602 | 91 | 294 | 3.5 | 3.5 | 0.00 | 0.00 | 0.00 | 70 | 1010.0 |
| 20260502033402 | 91 | 295 | 1.7 | 3.5 | 0.00 | 0.00 | 0.00 | 69 | 1009.8 |
| 20260502033202 | 91 | 284 | 1.7 | 3.5 | 0.00 | 0.00 | 0.00 | 69 | 1009.8 |
| 20260502033002 | 91 | 278 | 1.7 | 3.5 | 0.00 | 0.00 | 0.00 | 68 | 1009.8 |
| 20260502032802 | 90 | 272 | 1.7 | 5.2 | 0.00 | 0.00 | 0.00 | 68 | 1009.9 |
| 20260502032602 | 90 | 265 | 2.6 | 5.2 | 0.00 | 0.00 | 0.00 | 69 | 1009.9 |
| 20260502032402 | 90 | 248 | 1.7 | 5.2 | 0.00 | 0.00 | 0.00 | 70 | 1009.8 |
| 20260502032202 | 91 | 225 | 1.7 | 5.2 | 0.00 | 0.00 | 0.00 | 69 | 1009.7 |
| 20260502032002 | 92 | 174 | 3.5 | 5.2 | 0.00 | 0.00 | 0.00 | 67 | 1010.0 |
| 20260502031802 | 91 | 141 | 1.7 | 3.5 | 0.00 | 0.00 | 0.00 | 68 | 1009.9 |
| 20260502031602 | 91 | 119 | 1.7 | 3.5 | 0.00 | 0.00 | 0.00 | 70 | 1010.0 |
| 20260502031402 | 91 | 101 | 1.7 | 3.5 | 0.00 | 0.00 | 0.00 | 69 | 1009.9 |
| 20260502031202 | 91 | 98 | 2.6 | 3.5 | 0.00 | 0.00 | 0.00 | 69 | 1010.0 |
| 20260502031002 | 91 | 91 | 1.7 | 3.5 | 0.00 | 0.00 | 0.00 | 70 | 1009.9 |
| 20260502030802 | 90 | 64 | 2.6 | 3.5 | 0.00 | 0.00 | 0.00 | 69 | 1009.9 |
| 20260502030603 | 90 | 78 | 1.7 | 3.5 | 0.00 | 0.00 | 0.00 | 71 | 1010.0 |
| 20260502030402 | 90 | 109 | 1.7 | 3.5 | 0.00 | 0.00 | 0.00 | 70 | 1010.0 |
| 20260502030202 | 89 | 135 | 1.7 | 3.5 | 0.00 | 0.00 | 0.00 | 71 | 1009.8 |
| 20260502030002 | 89 | 150 | 0.9 | 3.5 | 0.00 | 0.00 | 0.00 | 72 | 1009.6 |
| 20260502025802 | 89 | 148 | 1.7 | 3.5 | 0.00 | 0.00 | 0.00 | 72 | 1010.0 |
| 20260502025602 | 89 | 160 | 3.5 | 3.5 | 0.00 | 0.00 | 0.00 | 72 | 1009.8 |
| 20260502025402 | 89 | 181 | 1.7 | 3.5 | 0.00 | 0.00 | 0.00 | 72 | 1009.9 |
| 20260502025202 | 89 | 212 | 1.7 | 3.5 | 0.00 | 0.00 | 0.00 | 73 | 1009.8 |
| 20260502025002 | 89 | 235 | 1.7 | 3.5 | 0.00 | 0.00 | 0.00 | 73 | 1009.9 |
| 20260502024802 | 89 | 242 | 1.7 | 3.5 | 0.00 | 0.00 | 0.00 | 72 | 1010.0 |
| 20260502024602 | 89 | 243 | 1.7 | 5.2 | 0.00 | 0.00 | 0.00 | 73 | 1009.9 |
| 20260502024402 | 90 | 238 | 1.7 | 5.2 | 0.00 | 0.00 | 0.00 | 72 | 1010.2 |
| 20260502024202 | 90 | 236 | 2.6 | 5.2 | 0.00 | 0.00 | 0.00 | 72 | 1009.9 |
| 20260502024003 | 89 | 221 | 0.0 | 5.2 | 0.00 | 0.00 | 0.00 | 74 | 1010.0 |
| 20260502023802 | 89 | 204 | 1.7 | 5.2 | 0.00 | 0.00 | 0.00 | 73 | 1009.9 |
| 20260502023602 | 89 | 107 | 2.6 | 5.2 | 0.00 | 0.00 | 0.00 | 73 | 1009.8 |
| 20260502023402 | 89 | 99 | 1.7 | 3.5 | 0.00 | 0.00 | 0.00 | 73 | 1009.8 |
| 20260502023202 | 89 | 101 | 0.9 | 5.2 | 0.00 | 0.00 | 0.00 | 75 | 1009.8 |
| 20260502023002 | 89 | 96 | 1.7 | 5.2 | 0.00 | 0.00 | 0.00 | 75 | 1009.7 |
| 20260502022802 | 89 | 98 | 1.7 | 5.2 | 0.00 | 0.00 | 0.00 | 75 | 1009.7 |
| 20260502022602 | 89 | 85 | 1.7 | 5.2 | 0.00 | 0.00 | 0.00 | 74 | 1009.7 |
| 20260502022402 | 89 | 77 | 1.7 | 5.2 | 0.00 | 0.00 | 0.00 | 74 | 1009.8 |
| 20260502022202 | 89 | 66 | 1.7 | 3.5 | 0.00 | 0.00 | 0.00 | 75 | 1009.9 |
| 20260502022002 | 89 | 79 | 0.9 | 3.5 | 0.00 | 0.00 | 0.00 | 75 | 1009.8 |
| 20260502021803 | 89 | 100 | 1.7 | 3.5 | 0.00 | 0.00 | 0.00 | 74 | 1009.8 |
| 20260502021602 | 89 | 128 | 1.7 | 3.5 | 0.00 | 0.00 | 0.00 | 75 | 1009.8 |
| 20260502021402 | 88 | 145 | 1.7 | 3.5 | 0.00 | 0.00 | 0.00 | 76 | 1009.7 |
| 20260502021202 | 88 | 150 | 0.9 | 3.5 | 0.00 | 0.00 | 0.00 | 77 | 1009.7 |
| 20260502021002 | 88 | 159 | 1.7 | 3.5 | 0.00 | 0.00 | 0.00 | 77 | 1009.7 |
| 20260502020802 | 88 | 154 | 0.9 | 3.5 | 0.00 | 0.00 | 0.00 | 78 | 1009.6 |
| 20260502020602 | 87 | 170 | 1.7 | 3.5 | 0.00 | 0.00 | 0.00 | 79 | 1009.6 |
| 20260502020402 | 87 | 184 | 1.7 | 3.5 | 0.00 | 0.00 | 0.00 | 79 | 1009.6 |
| 20260502020203 | 87 | 215 | 0.9 | 3.5 | 0.00 | 0.00 | 0.00 | 81 | 1009.7 |
| 20260502020002 | 87 | 272 | 0.9 | 1.7 | 0.00 | 0.00 | 0.00 | 83 | 1009.5 |
| 20260502015802 | 86 | 299 | 0.9 | 1.7 | 0.00 | 0.00 | 0.00 | 84 | 1009.7 |
| 20260502015602 | 86 | 316 | 0.0 | 1.7 | 0.00 | 0.00 | 0.00 | 85 | 1009.7 |
| 20260502015402 | 86 | 334 | 1.7 | 1.7 | 0.00 | 0.00 | 0.00 | 86 | 1009.7 |
| 20260502015202 | 85 | 349 | 0.0 | 1.7 | 0.00 | 0.00 | 0.00 | 87 | 1009.8 |
| 20260502015002 | 85 | 350 | 0.9 | 3.5 | 0.00 | 0.00 | 0.00 | 87 | 1009.6 |
| 20260502014802 | 84 | 350 | 1.7 | 3.5 | 0.00 | 0.00 | 0.00 | 88 | 1009.6 |
| 20260502014603 | 84 | 350 | 1.7 | 3.5 | 0.00 | 0.00 | 0.00 | 88 | 1009.6 |
| 20260502014402 | 84 | 341 | 1.7 | 3.5 | 0.00 | 0.00 | 0.00 | 89 | 1009.5 |
| 20260502014202 | 84 | 339 | 1.7 | 3.5 | 0.00 | 0.00 | 0.00 | 90 | 1009.7 |
| 20260502014002 | 84 | 348 | 0.9 | 3.5 | 0.00 | 0.00 | 0.00 | 91 | 1009.7 |
| 20260502013802 | 84 | 354 | 0.9 | 3.5 | 0.00 | 0.00 | 0.00 | 91 | 1009.5 |
| 20260502013602 | 84 | 350 | 0.0 | 3.5 | 0.00 | 0.00 | 0.00 | 91 | 1009.6 |
| 20260502013402 | 84 | 345 | 1.7 | 3.5 | 0.00 | 0.00 | 0.00 | 92 | 1009.4 |
| 20260502013202 | 83 | 331 | 0.9 | 3.5 | 0.00 | 0.00 | 0.00 | 93 | 1009.5 |
| 20260502013002 | 83 | 306 | 1.7 | 3.5 | 0.00 | 0.00 | 0.00 | 93 | 1009.6 |
| 20260502012802 | 83 | 292 | 1.7 | 3.5 | 0.00 | 0.00 | 0.00 | 93 | 1009.4 |
| 20260502012602 | 83 | 289 | 0.0 | 3.5 | 0.00 | 0.00 | 0.00 | 95 | 1009.6 |
| 20260502012402 | 83 | 290 | 0.9 | 3.5 | 0.00 | 0.00 | 0.00 | 94 | 1009.6 |
| 20260502012202 | 83 | 296 | 2.6 | 3.5 | 0.00 | 0.00 | 0.00 | 94 | 1009.6 |
| 20260502012002 | 83 | 309 | 0.9 | 1.7 | 0.00 | 0.00 | 0.00 | 95 | 1009.6 |
| 20260502011802 | 82 | 320 | 1.7 | 1.7 | 0.00 | 0.00 | 0.00 | 95 | 1009.6 |
| 20260502011602 | 82 | 321 | 1.7 | 1.7 | 0.00 | 0.00 | 0.00 | 95 | 1009.5 |
| 20260502011402 | 82 | 315 | 0.9 | 1.7 | 0.00 | 0.00 | 0.00 | 96 | 1009.7 |
| 20260502011202 | 82 | 298 | 0.9 | 3.5 | 0.00 | 0.00 | 0.00 | 96 | 1009.6 |
| 20260502011002 | 81 | 293 | 0.0 | 3.5 | 0.00 | 0.00 | 0.00 | 96 | 1009.5 |
| 20260502010802 | 81 | 282 | 1.7 | 3.5 | 0.00 | 0.00 | 0.00 | 96 | 1009.8 |
| 20260502010602 | 81 | 275 | 1.7 | 3.5 | 0.00 | 0.00 | 0.00 | 96 | 1009.6 |
| 20260502010402 | 81 | 272 | 1.7 | 3.5 | 0.00 | 0.00 | 0.00 | 97 | 1009.7 |
| 20260502010202 | 81 | 269 | 1.7 | 3.5 | 0.00 | 0.00 | 0.00 | 97 | 1009.6 |
| 20260502010003 | 81 | 259 | 0.9 | 1.7 | 0.00 | 0.00 | 0.00 | 97 | 1009.5 |
| 20260502005802 | 81 | 256 | 0.0 | 1.7 | 0.00 | 0.00 | 0.00 | 98 | 1009.6 |
| 20260502005602 | 80 | 264 | 0.9 | 1.7 | 0.00 | 0.00 | 0.00 | 98 | 1009.5 |
| 20260502005402 | 80 | 297 | 0.9 | 1.7 | 0.00 | 0.00 | 0.00 | 98 | 1009.2 |
| 20260502005202 | 81 | 350 | 1.7 | 3.5 | 0.00 | 0.00 | 0.00 | 97 | 1009.2 |
| 20260502005002 | 80 | 354 | 0.0 | 3.5 | 0.00 | 0.00 | 0.00 | 99 | 1009.3 |
| 20260502004802 | 80 | 335 | 0.0 | 3.5 | 0.00 | 0.00 | 0.00 | 99 | 1009.3 |
| 20260502004602 | 80 | 315 | 0.9 | 3.5 | 0.00 | 0.00 | 0.00 | 99 | 1009.4 |
| 20260502004402 | 79 | 292 | 0.0 | 3.5 | 0.00 | 0.00 | 0.00 | 99 | 1009.3 |
| 20260502004202 | 79 | 287 | 1.7 | 3.5 | 0.00 | 0.00 | 0.00 | 99 | 1009.0 |
| 20260502004002 | 79 | 284 | 0.0 | 3.5 | 0.00 | 0.00 | 0.00 | 99 | 1009.1 |
| 20260502003803 | 79 | 290 | 1.7 | 3.5 | 0.00 | 0.00 | 0.00 | 99 | 1009.2 |
| 20260502003602 | 78 | 299 | 0.0 | 3.5 | 0.00 | 0.00 | 0.00 | 99 | 1009.2 |
| 20260502003402 | 78 | 305 | 1.7 | 3.5 | 0.00 | 0.00 | 0.00 | 99 | 1009.1 |
| 20260502003202 | 78 | 302 | 1.7 | 3.5 | 0.00 | 0.00 | 0.00 | 99 | 1009.0 |
| 20260502003002 | 78 | 302 | 1.7 | 1.7 | 0.00 | 0.00 | 0.00 | 99 | 1009.0 |
| 20260502002802 | 78 | 295 | 1.7 | 3.5 | 0.00 | 0.00 | 0.00 | 99 | 1008.9 |
| 20260502002603 | 78 | 284 | 1.7 | 3.5 | 0.00 | 0.00 | 0.00 | 99 | 1008.8 |
| 20260502002402 | 78 | 276 | 0.9 | 3.5 | 0.00 | 0.00 | 0.00 | 99 | 1008.9 |
| 20260502002202 | 78 | 279 | 0.9 | 3.5 | 0.00 | 0.00 | 0.00 | 99 | 1008.8 |
| 20260502002003 | 77 | 280 | 0.0 | 3.5 | 0.00 | 0.00 | 0.00 | 99 | 1008.9 |
| 20260502001802 | 77 | 277 | 1.7 | 3.5 | 0.00 | 0.00 | 0.00 | 99 | 1008.9 |
| 20260502001602 | 77 | 272 | 1.7 | 3.5 | 0.00 | 0.00 | 0.00 | 99 | 1008.9 |
| 20260502001402 | 77 | 268 | 1.7 | 3.5 | 0.00 | 0.00 | 0.00 | 99 | 1008.8 |
| 20260502001202 | 77 | 256 | 1.7 | 3.5 | 0.00 | 0.00 | 0.00 | 99 | 1008.6 |
| 20260502001002 | 77 | 247 | 0.9 | 1.7 | 0.00 | 0.00 | 0.00 | 99 | 1008.8 |
| 20260502000802 | 77 | 247 | 1.7 | 3.5 | 0.00 | 0.00 | 0.00 | 99 | 1008.8 |
| 20260502000602 | 76 | 247 | 1.7 | 3.5 | 0.00 | 0.00 | 0.00 | 99 | 1008.7 |
| 20260502000402 | 76 | 247 | 0.9 | 3.5 | 0.00 | 0.00 | 0.00 | 99 | 1008.6 |
| 20260502000203 | 76 | 247 | 1.7 | 3.5 | 0.00 | 0.00 | 0.00 | 99 | 1008.8 |
| 20260502000003 | 76 | 247 | 1.7 | 3.5 | 0.00 | 0.00 | 0.00 | 99 | 1008.5 |
| 20260501235802 | 76 | 247 | 1.7 | 1.7 | 0.00 | 0.00 | 0.00 | 99 | 1008.5 |
| 20260501235602 | 76 | 247 | 0.9 | 1.7 | 0.00 | 0.00 | 0.00 | 99 | 1008.6 |
| 20260501235402 | 76 | 247 | 0.0 | 1.7 | 0.00 | 0.00 | 0.00 | 99 | 1008.4 |
| 20260501235202 | 76 | 247 | 0.0 | 1.7 | 0.00 | 0.00 | 0.00 | 99 | 1008.5 |
| 20260501235003 | 76 | 247 | 0.9 | 1.7 | 0.00 | 0.00 | 0.00 | 99 | 1008.6 |
| 20260501234802 | 75 | 247 | 0.9 | 1.7 | 0.00 | 0.00 | 0.00 | 99 | 1008.5 |
| 20260501234602 | 75 | 247 | 0.9 | 1.7 | 0.00 | 0.00 | 0.00 | 99 | 1008.3 |
| 20260501234402 | 75 | 247 | 0.9 | 1.7 | 0.00 | 0.00 | 0.00 | 99 | 1008.5 |
| 20260501234202 | 75 | 247 | 0.9 | 1.7 | 0.00 | 0.00 | 0.00 | 99 | 1008.4 |
| 20260501234003 | 75 | 247 | 0.0 | 1.7 | 0.00 | 0.00 | 0.00 | 99 | 1008.3 |
| 20260501233803 | 75 | 247 | 0.0 | 1.7 | 0.00 | 0.00 | 0.00 | 99 | 1008.2 |
| 20260501233602 | 75 | 247 | 0.0 | 1.7 | 0.00 | 0.00 | 0.00 | 99 | 1008.5 |
| 20260501233402 | 75 | 247 | 0.0 | 1.7 | 0.00 | 0.00 | 0.00 | 99 | 1008.0 |
| 20260501233202 | 74 | 247 | 0.0 | 1.7 | 0.00 | 0.00 | 0.00 | 99 | 1008.0 |
| 20260501233003 | 74 | 247 | 0.0 | 1.7 | 0.00 | 0.00 | 0.00 | 99 | 1008.0 |
| 20260501232803 | 74 | 247 | 0.0 | 1.7 | 0.00 | 0.00 | 0.00 | 99 | 1007.9 |
| 20260501232603 | 74 | 247 | 0.9 | 1.7 | 0.00 | 0.00 | 0.00 | 99 | 1008.3 |
| 20260501232403 | 74 | 247 | 0.9 | 1.7 | 0.00 | 0.00 | 0.00 | 99 | 1008.1 |
| 20260501232203 | 74 | 0 | 0.0 | 0.0 | 0.00 | 0.00 | 0.00 | 99 | 1008.0 |
| 20260501232003 | 74 | 0 | 0.0 | 0.0 | 0.00 | 0.00 | 0.00 | 99 | 1007.8 |
| 20260501231802 | 74 | 0 | 0.0 | 0.0 | 0.00 | 0.00 | 0.00 | 99 | 1008.2 |
| 20260501231603 | 74 | 0 | 0.0 | 0.0 | 0.00 | 0.00 | 0.00 | 99 | 1008.0 |
| 20260501231403 | 74 | 0 | 0.0 | 0.0 | 0.00 | 0.00 | 0.00 | 99 | 1007.9 |
| 20260501231202 | 74 | 0 | 0.0 | 0.0 | 0.00 | 0.00 | 0.00 | 99 | 1007.9 |
| 20260501231003 | 74 | 0 | 0.0 | 0.0 | 0.00 | 0.00 | 0.00 | 99 | 1007.9 |
| 20260501230803 | 74 | 0 | 0.0 | 0.0 | 0.00 | 0.00 | 0.00 | 99 | 1007.9 |
| 20260501230603 | 74 | 0 | 0.0 | 0.0 | 0.00 | 0.00 | 0.00 | 99 | 1008.0 |
| 20260501230403 | 74 | 0 | 0.0 | 0.0 | 0.00 | 0.00 | 0.00 | 99 | 1007.9 |
| 20260501230202 | 74 | 247 | 0.0 | 1.7 | 0.00 | 0.00 | 0.00 | 99 | 1007.9 |
| 20260501230003 | 74 | 247 | 0.0 | 1.7 | 0.00 | 0.00 | 0.00 | 99 | 1007.9 |
| 20260501225803 | 74 | 247 | 0.0 | 1.7 | 0.00 | 0.00 | 0.00 | 99 | 1007.9 |
| 20260501225602 | 74 | 247 | 0.0 | 1.7 | 0.00 | 0.00 | 0.00 | 99 | 1007.7 |
| 20260501225403 | 74 | 247 | 0.0 | 1.7 | 0.00 | 0.00 | 0.00 | 99 | 1007.7 |
| 20260501225202 | 74 | 247 | 0.9 | 1.7 | 0.00 | 0.00 | 0.00 | 99 | 1007.7 |
| 20260501225003 | 74 | 247 | 0.0 | 1.7 | 0.00 | 0.00 | 0.00 | 99 | 1007.5 |
| 20260501224803 | 74 | 247 | 0.0 | 1.7 | 0.00 | 0.00 | 0.00 | 99 | 1007.7 |
| 20260501224603 | 74 | 247 | 0.0 | 1.7 | 0.00 | 0.00 | 0.00 | 99 | 1007.8 |
| 20260501224403 | 74 | 247 | 0.0 | 1.7 | 0.00 | 0.00 | 0.00 | 99 | 1007.8 |
| 20260501224203 | 74 | 247 | 0.0 | 1.7 | 0.00 | 0.00 | 0.00 | 99 | 1007.8 |
| 20260501224003 | 74 | 247 | 0.0 | 1.7 | 0.00 | 0.00 | 0.00 | 99 | 1007.7 |
| 20260501223803 | 74 | 247 | 0.9 | 1.7 | 0.00 | 0.00 | 0.00 | 99 | 1007.6 |
| 20260501223603 | 74 | 247 | 0.9 | 1.7 | 0.00 | 0.00 | 0.00 | 99 | 1007.5 |
| 20260501223403 | 74 | 247 | 1.7 | 1.7 | 0.00 | 0.00 | 0.00 | 99 | 1007.5 |
| 20260501223203 | 74 | 247 | 1.7 | 1.7 | 0.00 | 0.00 | 0.00 | 99 | 1007.3 |
| 20260501223003 | 75 | 247 | 0.0 | 1.7 | 0.00 | 0.00 | 0.00 | 99 | 1007.4 |
| 20260501222803 | 75 | 247 | 0.0 | 1.7 | 0.00 | 0.00 | 0.00 | 99 | 1007.3 |
| 20260501222603 | 75 | 247 | 0.0 | 1.7 | 0.00 | 0.00 | 0.00 | 99 | 1007.5 |
| 20260501222403 | 75 | 247 | 0.0 | 1.7 | 0.00 | 0.00 | 0.00 | 99 | 1007.5 |
| 20260501222203 | 75 | 247 | 0.0 | 1.7 | 0.00 | 0.00 | 0.00 | 99 | 1007.2 |
| 20260501222003 | 75 | 247 | 0.0 | 1.7 | 0.00 | 0.00 | 0.00 | 99 | 1007.2 |
| 20260501221803 | 75 | 247 | 0.9 | 1.7 | 0.00 | 0.00 | 0.00 | 99 | 1007.3 |
| 20260501221603 | 75 | 247 | 0.0 | 1.7 | 0.00 | 0.00 | 0.00 | 99 | 1007.4 |
| 20260501221403 | 75 | 247 | 0.0 | 1.7 | 0.00 | 0.00 | 0.00 | 99 | 1007.2 |
| 20260501221203 | 74 | 247 | 0.0 | 1.7 | 0.00 | 0.00 | 0.00 | 99 | 1007.3 |
| 20260501221003 | 74 | 247 | 0.0 | 1.7 | 0.00 | 0.00 | 0.00 | 99 | 1007.2 |
| 20260501220803 | 74 | 247 | 0.0 | 1.7 | 0.00 | 0.00 | 0.00 | 99 | 1007.3 |
| 20260501220603 | 74 | 247 | 0.0 | 1.7 | 0.00 | 0.00 | 0.00 | 99 | 1007.3 |
| 20260501220403 | 74 | 247 | 0.0 | 1.7 | 0.00 | 0.00 | 0.00 | 99 | 1007.2 |
| 20260501220203 | 74 | 0 | 0.0 | 0.0 | 0.00 | 0.00 | 0.00 | 99 | 1007.3 |
| 20260501215803 | 74 | 0 | 0.0 | 0.0 | 0.00 | 0.00 | 0.00 | 99 | 1007.3 |
| 20260501215603 | 74 | 0 | 0.0 | 0.0 | 0.00 | 0.00 | 0.00 | 99 | 1007.3 |
| 20260501215403 | 74 | 0 | 0.0 | 0.0 | 0.00 | 0.00 | 0.00 | 99 | 1007.2 |
| 20260501215203 | 74 | 0 | 0.0 | 0.0 | 0.00 | 0.00 | 0.00 | 99 | 1007.2 |
| 20260501215003 | 74 | 0 | 0.0 | 0.0 | 0.00 | 0.00 | 0.00 | 99 | 1007.1 |
| 20260501214803 | 74 | 0 | 0.0 | 0.0 | 0.00 | 0.00 | 0.00 | 99 | 1007.2 |
| 20260501214603 | 74 | 0 | 0.0 | 0.0 | 0.00 | 0.00 | 0.00 | 99 | 1007.2 |
| 20260501214403 | 74 | 0 | 0.0 | 0.0 | 0.00 | 0.00 | 0.00 | 99 | 1007.0 |
| 20260501214203 | 74 | 0 | 0.0 | 0.0 | 0.00 | 0.00 | 0.00 | 99 | 1007.0 |
| 20260501214003 | 74 | 0 | 0.0 | 0.0 | 0.00 | 0.00 | 0.00 | 99 | 1007.1 |
| 20260501213803 | 74 | 0 | 0.0 | 0.0 | 0.00 | 0.00 | 0.00 | 99 | 1006.9 |
| 20260501213603 | 74 | 0 | 0.0 | 0.0 | 0.00 | 0.00 | 0.00 | 99 | 1007.0 |
| 20260501213403 | 75 | 0 | 0.0 | 0.0 | 0.00 | 0.00 | 0.00 | 99 | 1007.0 |
| 20260501213203 | 74 | 0 | 0.0 | 0.0 | 0.00 | 0.00 | 0.00 | 99 | 1006.8 |
| 20260501213003 | 74 | 0 | 0.0 | 0.0 | 0.00 | 0.00 | 0.00 | 99 | 1007.1 |
| 20260501212803 | 74 | 0 | 0.0 | 0.0 | 0.00 | 0.00 | 0.00 | 99 | 1006.9 |
| 20260501212603 | 75 | 0 | 0.0 | 0.0 | 0.00 | 0.00 | 0.00 | 99 | 1006.8 |
| 20260501212403 | 75 | 0 | 0.0 | 0.0 | 0.00 | 0.00 | 0.00 | 99 | 1006.9 |
| 20260501212203 | 75 | 0 | 0.0 | 0.0 | 0.00 | 0.00 | 0.00 | 99 | 1006.9 |
| 20260501212003 | 75 | 0 | 0.0 | 0.0 | 0.00 | 0.00 | 0.00 | 99 | 1006.9 |
| 20260501211803 | 75 | 0 | 0.0 | 0.0 | 0.00 | 0.00 | 0.00 | 99 | 1006.8 |
| 20260501211603 | 75 | 0 | 0.0 | 0.0 | 0.00 | 0.00 | 0.00 | 99 | 1006.9 |
| 20260501211403 | 74 | 0 | 0.0 | 0.0 | 0.00 | 0.00 | 0.00 | 99 | 1006.8 |
| 20260501211203 | 74 | 0 | 0.0 | 0.0 | 0.00 | 0.00 | 0.00 | 99 | 1007.0 |
| 20260501211003 | 74 | 0 | 0.0 | 0.0 | 0.00 | 0.00 | 0.00 | 99 | 1007.0 |
| 20260501210803 | 74 | 0 | 0.0 | 0.0 | 0.00 | 0.00 | 0.00 | 99 | 1007.1 |
| 20260501210603 | 74 | 0 | 0.0 | 0.0 | 0.00 | 0.00 | 0.00 | 99 | 1007.0 |
| 20260501210403 | 74 | 0 | 0.0 | 0.0 | 0.00 | 0.00 | 0.00 | 99 | 1007.0 |
| 20260501210203 | 74 | 0 | 0.0 | 0.0 | 0.00 | 0.00 | 0.00 | 99 | 1007.2 |
| 20260501210003 | 74 | 0 | 0.0 | 0.0 | 0.00 | 0.00 | 0.00 | 99 | 1006.9 |
| 20260501205803 | 74 | 0 | 0.0 | 0.0 | 0.00 | 0.00 | 0.00 | 99 | 1007.2 |
| 20260501205603 | 74 | 0 | 0.0 | 0.0 | 0.00 | 0.00 | 0.00 | 99 | 1007.0 |
| 20260501205403 | 74 | 0 | 0.0 | 0.0 | 0.00 | 0.00 | 0.00 | 99 | 1007.2 |
| 20260501205203 | 75 | 0 | 0.0 | 0.0 | 0.00 | 0.00 | 0.00 | 99 | 1007.0 |
| 20260501205003 | 75 | 0 | 0.0 | 0.0 | 0.00 | 0.00 | 0.00 | 99 | 1007.0 |
| 20260501204803 | 75 | 0 | 0.0 | 0.0 | 0.00 | 0.00 | 0.00 | 99 | 1007.1 |
| 20260501204603 | 75 | 0 | 0.0 | 0.0 | 0.00 | 0.00 | 0.00 | 99 | 1007.1 |
| 20260501204403 | 75 | 0 | 0.0 | 0.0 | 0.00 | 0.00 | 0.00 | 99 | 1007.2 |
| 20260501204203 | 75 | 0 | 0.0 | 0.0 | 0.00 | 0.00 | 0.00 | 99 | 1007.0 |
| 20260501204003 | 75 | 0 | 0.0 | 0.0 | 0.00 | 0.00 | 0.00 | 99 | 1007.2 |
| 20260501203803 | 75 | 0 | 0.0 | 0.0 | 0.00 | 0.00 | 0.00 | 99 | 1007.3 |
| 20260501203603 | 75 | 0 | 0.0 | 0.0 | 0.00 | 0.00 | 0.00 | 99 | 1007.5 |
| 20260501203403 | 75 | 0 | 0.0 | 0.0 | 0.00 | 0.00 | 0.00 | 99 | 1007.5 |
| 20260501203203 | 75 | 0 | 0.0 | 0.0 | 0.00 | 0.00 | 0.00 | 99 | 1007.3 |
| 20260501203003 | 75 | 0 | 0.0 | 0.0 | 0.00 | 0.00 | 0.00 | 99 | 1007.5 |
| 20260501202803 | 75 | 0 | 0.0 | 0.0 | 0.00 | 0.00 | 0.00 | 99 | 1007.3 |
| 20260501202603 | 75 | 0 | 0.0 | 0.0 | 0.00 | 0.00 | 0.00 | 99 | 1007.5 |
| 20260501202403 | 75 | 0 | 0.0 | 0.0 | 0.00 | 0.00 | 0.00 | 99 | 1007.4 |
| 20260501202203 | 75 | 0 | 0.0 | 0.0 | 0.00 | 0.00 | 0.00 | 99 | 1007.4 |
| 20260501202003 | 75 | 0 | 0.0 | 0.0 | 0.00 | 0.00 | 0.00 | 99 | 1007.4 |
| 20260501201803 | 75 | 0 | 0.0 | 0.0 | 0.00 | 0.00 | 0.00 | 99 | 1007.5 |
| 20260501201603 | 75 | 0 | 0.0 | 0.0 | 0.00 | 0.00 | 0.00 | 99 | 1007.3 |
| 20260501201403 | 75 | 0 | 0.0 | 0.0 | 0.00 | 0.00 | 0.00 | 99 | 1007.4 |
| 20260501201203 | 75 | 0 | 0.0 | 0.0 | 0.00 | 0.00 | 0.00 | 99 | 1007.5 |
| 20260501201003 | 75 | 0 | 0.0 | 0.0 | 0.00 | 0.00 | 0.00 | 99 | 1007.4 |
| 20260501200803 | 75 | 0 | 0.0 | 0.0 | 0.00 | 0.00 | 0.00 | 99 | 1007.6 |
| 20260501200603 | 75 | 0 | 0.0 | 0.0 | 0.00 | 0.00 | 0.00 | 99 | 1007.4 |
| 20260501200403 | 75 | 0 | 0.0 | 0.0 | 0.00 | 0.00 | 0.00 | 99 | 1007.6 |
| 20260501200203 | 75 | 0 | 0.0 | 0.0 | 0.00 | 0.00 | 0.00 | 99 | 1007.6 |
| 20260501200003 | 75 | 0 | 0.0 | 0.0 | 0.00 | 0.00 | 0.00 | 99 | 1007.5 |
| 20260501195803 | 75 | 0 | 0.0 | 0.0 | 0.00 | 0.00 | 0.00 | 99 | 1007.6 |
| 20260501195603 | 75 | 0 | 0.0 | 0.0 | 0.00 | 0.00 | 0.00 | 99 | 1007.6 |
| 20260501195403 | 75 | 0 | 0.0 | 0.0 | 0.00 | 0.00 | 0.00 | 99 | 1007.5 |
| 20260501195203 | 75 | 0 | 0.0 | 0.0 | 0.00 | 0.00 | 0.00 | 99 | 1007.8 |
| 20260501195003 | 75 | 0 | 0.0 | 0.0 | 0.00 | 0.00 | 0.00 | 99 | 1007.9 |